This is the latest recevied weather packets stored in our database for station/object SV9TNF-52. If no packets are shown the sender has not sent any weather packets the latest 10 day(s).
| Time | Temp. | Humidity | Pressure | Rain* | Wind** | Luminosity | Snow |
|---|---|---|---|---|---|---|---|
| 1788426249 | 32.22° C | 55% | 1018.3 hPa | 0 mm | 2.68 m/s, 343° | - | - |
| 1788425949 | 32.22° C | 56% | 1018.3 hPa | 0 mm | 4.92 m/s, 200° | - | - |
| 1788425649 | 31.67° C | 54% | 1018.3 hPa | 0 mm | 6.26 m/s, 296° | - | - |
| 1788425349 | 31.67° C | 56% | 1018.3 hPa | 0 mm | 7.15 m/s, 288° | - | - |
| 1788425049 | 31.67° C | 55% | 1018.3 hPa | 0 mm | 4.92 m/s, 241° | - | - |
| 1788424749 | 32.78° C | 53% | 1018.3 hPa | 0 mm | 3.13 m/s, 189° | - | - |
| 1788424449 | 32.78° C | 52% | 1018.3 hPa | 0 mm | 4.02 m/s, 309° | - | - |
| 1788424149 | 32.22° C | 52% | 1018.3 hPa | 0 mm | 4.92 m/s, 283° | - | - |
| 1788423849 | 32.22° C | 52% | 1018.3 hPa | 0 mm | 5.81 m/s, 270° | - | - |
| 1788423549 | 32.22° C | 52% | 1018.3 hPa | 0 mm | 4.47 m/s, 263° | - | - |
| 1788423248 | 31.67° C | 51% | 1018.3 hPa | 0 mm | 4.02 m/s, 305° | - | - |
| 1788422948 | 32.22° C | 51% | 1018.3 hPa | 0 mm | 4.02 m/s, 341° | - | - |
| 1788422648 | 32.22° C | 49% | 1018.3 hPa | 0 mm | 4.92 m/s, 265° | - | - |
| 1788422348 | 31.67° C | 50% | 1018.3 hPa | 0 mm | 5.81 m/s, 311° | - | - |
| 1788422048 | 32.22° C | 49% | 1018.3 hPa | 0 mm | 4.92 m/s, 263° | - | - |
| 1788421752 | 31.67° C | 50% | 1018.3 hPa | 0 mm | 4.47 m/s, 255° | - | - |
| 1788421448 | 31.11° C | 51% | 1018.3 hPa | 0 mm | 4.92 m/s, 274° | - | - |
| 1788421148 | 31.11° C | 52% | 1018.3 hPa | 0 mm | 6.26 m/s, 290° | - | - |
| 1788420848 | 31.11° C | 50% | 1018.3 hPa | 0 mm | 4.02 m/s, 263° | - | - |
| 1788420548 | 31.67° C | 51% | 1018.3 hPa | 0 mm | 1.34 m/s, 245° | - | - |
| 1788420247 | 31.11° C | 51% | 1018.3 hPa | 0 mm | 4.02 m/s, 308° | - | - |
| 1788419947 | 30.56° C | 51% | 1018.3 hPa | 0 mm | 5.81 m/s, 252° | - | - |
| 1788419647 | 31.67° C | 50% | 1018.3 hPa | 0 mm | 5.81 m/s, 266° | - | - |
| 1788419347 | 31.11° C | 50% | 1018.3 hPa | 0 mm | 5.81 m/s, 271° | - | - |
| 1788419047 | 30.56° C | 52% | 1018.3 hPa | 0 mm | 1.79 m/s, 225° | - | - |
* Rain latest hour (hover to see other rain measurements)
** Current wind speed in m/s (hover to see current wind gust speed)